GUNLAK-WX Weather Reports


time (UTC)temp
C
wind
direction
speed
KPH
gust
KPH
rain 1hr
cm
rain 24hr
cm
rain mn
cm
humidity
%
barometer
mb
20260509041614 7 157 8.0 0.0 0.00 0.00 0.00 55 979.4
20260509040152 7 153 6.4 0.0 0.00 0.00 0.00 55 979.4
20260509034614 8 172 6.4 0.0 0.00 0.00 0.00 50 980.3
20260509033130 8 170 6.4 0.0 0.00 0.00 0.00 48 981.0
20260509031614 8 163 8.0 0.0 0.00 0.00 0.00 48 981.0
20260509030148 9 168 8.0 0.0 0.00 0.00 0.00 48 981.0
20260509024613 9 159 8.0 0.0 0.00 0.00 0.00 33 981.0
20260509023131 10 159 8.0 0.0 0.00 0.00 0.00 41 981.3
20260509021614 10 167 8.0 0.0 0.00 0.00 0.00 41 981.2
20260509020144 10 167 6.4 0.0 0.00 0.00 0.00 41 981.2
20260509014612 11 191 3.2 0.0 0.00 0.00 0.00 43 980.9
20260509013127 11 222 3.2 0.0 0.00 0.00 0.00 43 980.9
20260509011613 11 265 3.2 0.0 0.00 0.00 0.00 43 980.9
20260509010141 12 274 4.8 0.0 0.00 0.00 0.00 43 980.9
20260509004611 12 284 4.8 0.0 0.00 0.00 0.00 33 980.5
20260509003130 13 270 6.4 0.0 0.00 0.00 0.00 32 981.9
20260509001612 13 274 4.8 0.0 0.00 0.00 0.00 32 981.9
20260509000156 14 276 6.4 0.0 0.00 0.00 0.00 32 981.9
20260508234614 15 274 9.7 0.0 0.00 0.00 0.00 24 981.1
20260508233134 15 270 11.3 0.0 0.00 0.00 0.00 23 981.7
20260508231616 15 268 11.3 0.0 0.00 0.00 0.00 23 981.7
20260508230139 16 270 11.3 0.0 0.00 0.00 0.00 23 981.7
20260508224615 16 273 12.9 0.0 0.00 0.00 0.00 22 981.7
20260508223134 16 279 14.5 0.0 0.00 0.00 0.00 20 982.7
20260508221616 16 279 14.5 0.0 0.00 0.00 0.00 20 982.6
20260508220141 16 278 14.5 0.0 0.00 0.00 0.00 20 982.6
20260508214615 16 278 16.1 0.0 0.00 0.00 0.00 21 983.2
20260508213133 16 271 16.1 0.0 0.00 0.00 0.00 22 982.6
20260508211616 17 257 16.1 0.0 0.00 0.00 0.00 22 982.6
20260508210145 17 255 16.1 0.0 0.00 0.00 0.00 22 982.6
20260508204616 17 252 16.1 0.0 0.00 0.00 0.00 27 982.9
20260508203134 17 250 16.1 0.0 0.00 0.00 0.00 28 982.5
20260508201616 17 246 16.1 0.0 0.00 0.00 0.00 28 982.5
20260508200142 17 241 14.5 0.0 0.00 0.00 0.00 28 982.5
20260508194616 17 236 12.9 0.0 0.00 0.00 0.00 25 982.8
20260508193131 17 238 14.5 0.0 0.00 0.00 0.00 25 982.8
20260508191615 17 247 14.5 0.0 0.00 0.00 0.00 25 982.8
20260508190139 17 233 12.9 0.0 0.00 0.00 0.00 25 982.8
20260508184615 17 236 12.9 0.0 0.00 0.00 0.00 28 983.4
20260508183135 16 240 14.5 0.0 0.00 0.00 0.00 29 983.0
20260508181615 16 243 14.5 0.0 0.00 0.00 0.00 29 982.9
20260508180147 16 240 14.5 0.0 0.00 0.00 0.00 29 982.9
20260508174616 16 239 14.5 0.0 0.00 0.00 0.00 32 984.0
20260508173134 16 244 14.5 0.0 0.00 0.00 0.00 32 984.0
20260508171615 16 239 14.5 0.0 0.00 0.00 0.00 32 984.0
20260508170141 15 243 14.5 0.0 0.00 0.00 0.00 32 984.0
20260508164615 15 241 12.9 0.0 0.00 0.00 0.00 35 984.1
20260508163134 15 235 12.9 0.0 0.00 0.00 0.00 35 984.4
20260508161615 14 231 11.3 0.0 0.00 0.00 0.00 35 984.4
20260508160146 13 234 9.7 0.0 0.00 0.00 0.00 35 984.4
20260508154616 13 230 8.0 0.0 0.00 0.00 0.00 45 985.3
20260508153136 12 209 8.0 0.0 0.00 0.00 0.00 53 984.4
20260508151616 12 205 8.0 0.0 0.00 0.00 0.00 53 984.4
20260508150146 11 210 6.4 0.0 0.00 0.00 0.00 53 984.4
20260508144616 11 205 6.4 0.0 0.00 0.00 0.00 62 984.5
20260508143133 11 203 8.0 0.0 0.00 0.00 0.00 60 984.6
20260508141616 11 196 6.4 0.0 0.00 0.00 0.00 60 984.6
20260508140154 10 192 6.4 0.0 0.00 0.00 0.00 63 984.4
20260508134616 10 186 6.4 0.0 0.00 0.00 0.00 73 984.4
20260508133130 8 185 6.4 0.0 0.00 0.00 0.00 73 984.3
20260508131616 8 185 8.0 0.0 0.00 0.00 0.00 73 984.3
20260508130150 7 183 6.4 0.0 0.00 0.00 0.00 73 984.3
20260508124616 6 185 6.4 0.0 0.00 0.00 0.00 83 983.5
20260508123134 6 192 6.4 0.0 0.00 0.00 0.00 83 984.3
20260508121615 5 186 6.4 0.0 0.00 0.00 0.00 83 984.3
20260508120207 5 175 3.2 0.0 0.00 0.00 0.00 83 984.3
20260508114615 3 174 3.2 0.0 0.00 0.00 0.00 86 983.8
20260508113137 3 175 3.2 0.0 0.00 0.00 0.00 82 984.4
20260508111615 3 153 3.2 0.0 0.00 0.00 0.00 82 984.5
20260508110141 2 155 6.4 0.0 0.00 0.00 0.00 82 984.5
20260508104617 2 151 6.4 0.0 0.00 0.00 0.00 71 983.5
20260508103135 3 146 6.4 0.0 0.00 0.00 0.00 74 984.6
20260508101618 3 151 6.4 0.0 0.00 0.00 0.00 74 984.6
20260508100142 3 142 4.8 0.0 0.00 0.00 0.00 74 984.6
20260508094617 3 130 4.8 0.0 0.00 0.00 0.00 73 983.8
20260508093131 3 120 4.8 0.0 0.00 0.00 0.00 75 984.5
20260508091618 3 132 4.8 0.0 0.00 0.00 0.00 75 984.5
20260508090146 3 126 4.8 0.0 0.00 0.00 0.00 75 984.5
20260508084617 3 120 4.8 0.0 0.00 0.00 0.00 80 984.0
20260508083135 3 129 3.2 0.0 0.00 0.00 0.00 84 983.8
20260508081617 3 173 4.8 0.0 0.00 0.00 0.00 84 983.8
20260508080149 3 164 6.4 0.0 0.00 0.00 0.00 84 983.8
20260508074618 3 167 4.8 0.0 0.00 0.00 0.00 87 984.7
20260508073136 4 174 6.4 0.0 0.00 0.00 0.00 87 984.7
20260508071616 4 169 4.8 0.0 0.00 0.00 0.00 87 984.7
20260508070148 4 168 4.8 0.0 0.00 0.00 0.00 87 984.7
20260508064616 4 172 4.8 0.0 0.00 0.00 0.00 85 984.3
20260508063132 5 174 6.4 0.0 0.00 0.00 0.00 85 984.7
20260508061616 5 173 4.8 0.0 0.00 0.00 0.00 85 984.7
20260508060208 5 164 4.8 0.0 0.00 0.00 0.00 85 984.7
20260508054615 5 170 3.2 0.0 0.00 0.00 0.00 83 985.4
20260508053136 5 177 4.8 0.0 0.00 0.00 0.00 84 985.1
20260508051615 5 171 6.4 0.0 0.00 0.00 0.00 84 985.1
20260508050150 5 177 6.4 0.0 0.00 0.00 0.00 84 985.1
20260508044615 5 177 6.4 0.0 0.00 0.00 0.00 82 985.5
20260508043131 6 202 3.2 0.0 0.00 0.00 0.00 80 984.8